Location: Unspecified
(0.0000°N, 0.0000°E)
Time: 00:54:24
(UTC+00:00)

Tiros 1 despin weight - All Passes

Search period start: 26 May 2019 00:00
Search period end: 05 June 2019 00:00
Orbit: 594 x 643 km, 48.2° (Epoch: 25 May)

Date Brightness Start Highest point End Pass type
(mag) Time Alt. Az. Time Alt. Az. Time Alt. Az.
26 May - 05:40:21 10° S 05:44:07 27° SE 05:47:52 10° ENE daylight
26 May - 07:22:14 10° W 07:25:29 20° NW 07:28:44 10° N daylight
26 May - 17:47:55 10° NNW 17:52:25 47° NE 17:56:55 10° SE daylight
26 May - 19:31:34 10° W 19:33:51 13° SW 19:36:09 10° SSW visible
27 May - 05:56:16 10° SW 06:00:41 79° SE 06:05:05 10° NE daylight
27 May - 16:26:38 10° NE 16:27:30 10° NE 16:28:22 10° ENE daylight
27 May - 18:04:22 10° NW 18:08:59 62° SW 18:13:36 10° SSE daylight
28 May - 04:33:11 10° SSE 04:35:52 16° SE 04:38:33 10° E visible
28 May - 06:13:14 10° WSW 06:17:15 35° NW 06:21:17 10° NNE daylight
28 May - 16:40:12 10° N 16:44:09 27° NE 16:48:07 10° ESE daylight
28 May - 18:21:52 10° WNW 18:25:34 23° SW 18:29:17 10° S visible
29 May - 04:48:18 10° SSW 04:52:29 42° SE 04:56:39 10° ENE visible
29 May - 06:31:47 10° WNW 06:33:52 13° NW 06:35:58 10° NNW daylight
29 May - 16:56:04 10° NW 17:00:44 74° NE 17:05:24 10° SE daylight
30 May - 05:04:40 10° SW 05:09:02 65° NW 05:13:24 10° NNE visible
30 May - 15:33:01 10° NNE 15:35:53 16° NE 15:38:45 10° E daylight
30 May - 17:12:56 10° WNW 17:17:19 40° SW 17:21:42 10° SSE daylight
31 May - 03:40:42 10° S 03:44:16 24° SE 03:47:48 10° ENE visible
31 May - 05:22:08 10° WSW 05:25:37 23° NW 05:29:07 10° N visible
31 May - 15:48:05 10° NNW 15:52:29 41° NE 15:56:54 10° ESE daylight
31 May - 17:31:08 10° W 17:33:55 16° SW 17:36:45 10° SSW daylight
01 Jun - 03:56:27 10° SSW 04:00:51 67° SE 04:05:12 10° NE visible
01 Jun - 16:04:24 10° NW 16:09:03 72° SW 16:13:44 10° SSE daylight
02 Jun - 02:33:46 10° SSE 02:36:00 14° SE 02:38:14 10° E visible
02 Jun - 04:13:15 10° WSW 04:17:24 40° NW 04:21:32 10° NNE visible
02 Jun - 14:40:29 10° N 14:44:14 24° NE 14:47:59 10° ESE daylight
02 Jun - 16:21:43 10° WNW 16:25:38 26° SW 16:29:35 10° S daylight
03 Jun - 02:48:33 10° SSW 02:52:38 36° SE 02:56:41 10° ENE visible
03 Jun - 04:31:26 10° W 04:34:01 15° NW 04:36:34 10° NNW visible
03 Jun - 14:56:12 10° NNW 15:00:48 63° NE 15:05:27 10° SE daylight
03 Jun - 16:41:45 10° SW 16:42:19 10° SW 16:42:52 10° SW daylight
04 Jun - 03:04:47 10° SW 03:09:12 77° NW 03:13:35 10° NE visible
04 Jun - 13:33:34 10° NNE 13:35:56 14° NE 13:38:19 10° E daylight
04 Jun - 15:12:54 10° NW 15:17:22 46° SW 15:21:53 10° SSE daylight
